NIMBUS 2 DEB, 28206

Orbit data source: Space-Track

NIMBUS 2 DEB, 28206 is space debris in SSO originally from a launch on Sun, 15 May 1966 UTC launched from the Air Force Western Test Range (AFWTR). Debris objects in space refer to the collection of defunct objects orbiting the Earth. Examples of debris include non-operational satellites, rocket bodies, and fragments generated from explosions, collisions, or faulty payload assembly.

Loading next visibility...
Identifier
28206, 1966-040U
Orbit
SSO
Country
Flag of USUS
Related business
Manufacturer
Unknown
Mission
Spacecraft
Bus & Motor
Unknown
Mass
Unknown
Launch date (UTC)
1966-05-15 (60 years ago)
Launch vehicle
Unknown
Launch site
Air Force Western Test Range (AFWTR)
Object type
Payload
Rocket body
Debris
Shape & HBR
Unknown shape, 0.1 m
Radar Cross Section
Medium (>0.1 m² and <1 m²)

Expand to show TLE details & history
Last TLE update: 2 days ago

TLE from 2 days ago
0 NIMBUS 2 DEB
1 28206U 66040U   26171.41188742  .00001023  00000-0  16961-2 0  9997
2 28206 100.3752  63.6047 0052299  15.5892  93.1647 13.48986373 92431
Epoch: 2026-06-20T09:53Z
TLE epoch observation values (Epoch: 2026-06-20T09:53:07.073Z)
Latitude
68.21744°
Longitude
-146.18493°
Altitude
1,090.047 km
Speed
7.312 km/s
True Right ascension
18h 02m 53s
True Declination
68° 06' 14"
Sunlit
Object was in daylight at epoch
Visualization orbit readout
Latitude
Unknown
Longitude
Unknown
Altitude
Unknown
Speed
Unknown
Apparent Right ascension
Unknown
Apparent Declination
Unknown
Sunlit
N/A
Visualization observer readout
Local Sidereal Time
02:18:52
Azimuth
Unknown
Elevation
Unknown
Doppler factor
Unknown
Orbital elements
Apogee altitude
1,112.299 km
Perigee altitude
1,034.358 km
Semi-major axis
7,451.466 km
Eccentricity
0.00523
Inclination
100.3752°
RAAN
63.6047°
Arg. of periapsis
15.5892°
True anomaly
93.76286°
Mean anomaly
93.1647°
Eccentric anomaly
93.4638°
Mean motion
3.37428 °/min
Orbital period
106.69 mins
BSTAR
0.0016961
Loading maneuver chart data...
Computing Atmospheric mass density...
Loading historical data...
Loading historical data...
Loading historical data...
Loading historical data...
Loading historical data...
Loading historical data...
Loading historical data...

Documentation

Showing up to 5 results
|